Home   Weather   Da Nang   Past weeks

Flag for Vietnam Past Weather in Da Nang, Vietnam — Yesterday and Last 2 Weeks

86 °F

Scattered clouds.

Feels Like: 99 °F
Forecast: 77 / 87 °F
Wind: 10 mph from East

Location: Da Nang Airport

Current Time: Oct 23, 2016 at 4:48:44 PM

Latest Report: Oct 23, 2016 at 4:30 PM

Visibility: 5 mi

Pressure: 29.71 "Hg

Humidity: 79%

Dew Point: 79 °F

Location of Da NangLocation

Past Weather in Da Nang — Graph


Da Nang Temperature Yesterday

Maximum temperature yesterday: 97 °F (at 10:30 AM)
Minimum temperature yesterday: 75 °F (at 6:00 AM)
Average temperature yesterday: 84 °F

High & Low Weather Summary for the Past Weeks

High97 °F (Oct 22, 10:30 AM)100% (Oct 9, 5:30 AM)29.86 "Hg (Oct 9, 5:30 AM)
Low75 °F (Oct 9, 5:00 AM)52% (Oct 9, 10:00 AM)29.59 "Hg (Oct 18, 2:30 PM)
Average82 °F82%29.74 "Hg
* Reported Oct 8 3:00 PM — Oct 23 3:30 PM, Da Nang, Weather by CustomWeather, © 2016

Note: Actual official high and low records may vary slightly from our data, if they occured in-between our weather recording intervals... More about our weather records


Da Nang Weather History for the Previous 24 Hours

Scroll right to see more
Time TempWeatherWind HumidityBarometerVisibility
3:30 PM
Sun, Oct 23
88 °FScattered clouds.9 mph75%29.71 "Hg5 mi
3:00 PM88 °FScattered clouds.8 mph75%29.71 "Hg5 mi
2:30 PM88 °FScattered clouds.9 mph75%29.71 "Hg5 mi
2:00 PM90 °FScattered clouds.9 mph67%29.71 "Hg5 mi
1:00 PM91 °FScattered clouds.8 mph59%29.74 "Hg5 mi
12:30 PM91 °FScattered clouds.8 mph59%29.74 "Hg5 mi
12:00 PM93 °FScattered clouds.5 mph56%29.77 "Hg5 mi
11:30 AM91 °FScattered clouds.6 mph59%29.77 "Hg5 mi
11:00 AM93 °FScattered clouds.5 mph59%29.80 "Hg5 mi
10:30 AM90 °FScattered clouds.5 mph67%29.80 "Hg5 mi
10:00 AM91 °FScattered clouds.5 mph63%29.83 "Hg5 mi
9:30 AM93 °FScattered clouds.No wind59%29.83 "Hg5 mi
9:00 AM90 °FScattered clouds.1 mph67%29.83 "Hg4 mi
8:30 AM86 °FScattered clouds.No wind70%29.83 "Hg4 mi
8:00 AM86 °FScattered clouds.1 mph75%29.83 "Hg4 mi
7:30 AM81 °FScattered clouds.5 mph84%29.80 "Hg4 mi
7:00 AM81 °FScattered clouds.3 mph89%29.80 "Hg4 mi
6:30 AM81 °FScattered clouds.1 mph84%29.77 "Hg4 mi
6:00 AM79 °FPartly sunny.1 mph89%29.77 "Hg4 mi
5:30 AM79 °FPassing clouds.2 mph89%29.77 "Hg5 mi
5:00 AM79 °FPassing clouds.No wind89%29.74 "Hg5 mi
4:00 AM79 °FPassing clouds.No wind89%29.74 "Hg5 mi
3:00 AM79 °FPassing clouds.1 mph89%29.74 "Hg5 mi
2:00 AM79 °FPassing clouds.No wind84%29.74 "Hg5 mi
1:30 AM79 °FPassing clouds.No wind89%29.74 "Hg5 mi
1:00 AM81 °FPassing clouds.2 mph84%29.74 "Hg5 mi
12:30 AM81 °FPassing clouds.1 mph89%29.77 "Hg5 mi
12:00 AM81 °FPassing clouds.2 mph89%29.77 "Hg5 mi
11:00 PM
Sat, Oct 22
81 °FPassing clouds.1 mph94%29.77 "Hg5 mi
10:30 PM81 °FPassing clouds.1 mph94%29.80 "Hg5 mi
10:00 PM81 °FPassing clouds.2 mph94%29.80 "Hg5 mi
9:30 PM82 °FPassing clouds.3 mph89%29.80 "Hg5 mi
9:00 PM82 °FPassing clouds.2 mph89%29.80 "Hg5 mi
8:30 PM84 °FPassing clouds.1 mph84%29.80 "Hg5 mi
Weather by CustomWeather, © 2016

See weather overviewHow to use our weather pages